Weather History for Tampa Macdill AFB, FL

Change the Weather History Date:

Sunday, October 16, 2011

  Actual Average Record
Temperature  
Mean Temperature 76 °F -  
Max Temperature 85 °F 82 °F 91 °F (1998)
Min Temperature 68 °F 65 °F 55 °F (2000)
Cooling Degree Days 12    
Growing Degree Days 26 (Base 50)    
Moisture  
Dew Point 68 °F    
Average Humidity 77    
Maximum Humidity 100    
Minimum Humidity 52    
Precipitation  
Precipitation 0.00 in - - ()
Sea Level Pressure  
Sea Level Pressure 30.04 in    
Wind  
Wind Speed 10 mph (NE)    
Max Wind Speed 17 mph    
Max Gust Speed 22 mph    
Visibility 10 miles    
Events      
Averages and records for this station are not official NWS values.
T = Trace of Precipitation, MM = Missing Value Source: NWS Daily Summary

Daily Weather History Graph

Daily Weather History Graph

Search for Another Location

Airport:

Trip Planner

Search our weather history database for the weather conditions in past years. The results will help you decide how hot, cold, wet, or windy it might be!

Date:

Astronomy

Oct. 16, 2011 Rise Set
Actual Time 7:30 AM EDT 7:00 PM EDT
Civil Twilight 7:07 AM EDT 7:23 PM EDT
Nautical Twilight 6:39 AM EDT 7:51 PM EDT
Astronomical Twilight 6:12 AM EDT 8:18 PM EDT
Moon 10:06 PM EDT (10/16) 11:25 AM EDT (10/16)
Length of Visible Light 12h 16m
Length of Day
11h 29m
Waning Gibbous, 82% of the Moon is Illuminated
Oct 16
Waning Gibbous
Oct 19
Last Quarter
Oct 26
New
Nov 2
First Quarter
Nov 10
Full

Hourly Weather History & Observations

Time (EDT) Temp. Heat Index Dew Point Humidity Pressure Visibility Wind Dir Wind Speed Gust Speed Precip Events Conditions
12:55 AM 69.8 °F - 66.7 °F 90% 30.09 in 10.0 mi NE 8.1 mph - N/A   Clear
1:55 AM 68.4 °F - 65.7 °F 91% 30.08 in 10.0 mi NNE 6.9 mph - N/A   Clear
2:55 AM 69.1 °F - 66.7 °F 92% 30.06 in 10.0 mi NE 6.9 mph - N/A   Clear
3:55 AM 69.1 °F - 67.1 °F 93% 30.05 in 10.0 mi NNE 5.8 mph - N/A   Clear
4:55 AM 68.9 °F - 67.1 °F 94% 30.04 in 10.0 mi NE 6.9 mph - N/A   Clear
7:22 AM 68.0 °F - 68.0 °F 100% 30.02 in 10.0 mi NNE 9.2 mph - N/A   Mostly Cloudy
7:55 AM 69.8 °F - 68.0 °F 94% 30.03 in 10.0 mi NE 5.8 mph - N/A   Mostly Cloudy
8:55 AM 71.2 °F - 69.4 °F 94% 30.08 in 10.0 mi NE 12.7 mph - N/A   Clear
9:55 AM 73.4 °F - 69.1 °F 86% 30.09 in 10.0 mi NE 12.7 mph - N/A   Clear
10:55 AM 77.5 °F - 70.0 °F 77% 30.10 in 10.0 mi NE 16.1 mph - N/A   Clear
11:55 AM 81.3 °F 85.4 °F 71.2 °F 71% 30.08 in 10.0 mi NE 15.0 mph - N/A   Clear
12:55 PM 81.3 °F 85.4 °F 71.2 °F 71% 30.06 in 10.0 mi NE 17.3 mph - N/A   Partly Cloudy
1:55 PM 82.6 °F 87.8 °F 72.1 °F 71% 30.04 in 10.0 mi NE 11.5 mph - N/A   Clear
2:55 PM 85.3 °F 89.4 °F 69.3 °F 59% 30.00 in 10.0 mi ENE 17.3 mph - N/A   Clear
3:55 PM 85.6 °F 88.8 °F 67.6 °F 55% 29.99 in 10.0 mi East 13.8 mph - N/A   Clear
4:55 PM 85.3 °F 87.4 °F 66.0 °F 52% 29.98 in 10.0 mi ENE 13.8 mph 21.9 mph N/A   Clear
5:55 PM 83.3 °F 85.9 °F 67.3 °F 58% 29.98 in 10.0 mi ENE 13.8 mph - N/A   Clear
6:55 PM 80.1 °F 82.3 °F 67.1 °F 64% 29.98 in 10.0 mi ENE 11.5 mph - N/A   Clear
7:55 PM 77.5 °F - 66.7 °F 69% 29.99 in 10.0 mi ENE 11.5 mph - N/A   Mostly Cloudy
8:55 PM 76.5 °F - 66.2 °F 70% 30.01 in 10.0 mi ENE 9.2 mph - N/A   Mostly Cloudy
9:55 PM 75.6 °F - 67.3 °F 75% 30.02 in 10.0 mi ENE 10.4 mph - N/A   Scattered Clouds